"Time","Temp","Dewpoint","Humidity","Pressure","Direction","Speed","Gust","Precip","PrecipRate"
"00:04:55","49.9","45.2","83.8","30.12","348","0","0","0.00","0.00"
"00:09:58","49.6","45","84","30.12","348","0","0","0.00","0.00"
"00:14:57","49.3","45","85","30.13","348","0","0","0.00","0.00"
"00:19:56","48.9","44.6","85","30.13","348","0","0","0.00","0.00"
"00:24:58","48.5","44.4","85.8","30.13","348","0","0","0.00","0.00"
"00:29:56","48.1","44.4","86.7","30.13","348","0","0","0.00","0.00"
"00:34:59","47.8","44.2","87","30.13","348","0","0","0.00","0.00"
"00:39:58","47.6","44.1","87.8","30.13","348","0","0","0.00","0.00"
"00:44:56","47.3","43.9","88","30.13","348","0","0","0.00","0.00"
"00:49:56","47","43.6","88","30.13","348","0","0","0.00","0.00"
"00:54:58","46.7","43.3","88.1","30.13","348","0","0","0.00","0.00"
"00:59:57","46.5","43.4","89","30.13","348","0","0","0.00","0.00"
"01:04:59","46.3","43.3","89.4","30.13","348","0","0","0.00","0.00"
"01:09:56","46.1","43.3","90","30.13","348","0","0","0.00","0.00"
"01:14:59","45.9","43.1","90","30.14","348","0","0","0.00","0.00"
"01:19:58","45.6","42.8","90","30.14","348","0","0","0.00","0.00"
"01:24:56","45.4","42.6","90","30.14","348","0","0","0.00","0.00"
"01:29:59","45.1","42.3","90","30.14","348","0","0","0.00","0.00"
"01:34:57","45","42.3","90.4","30.14","348","0","0","0.00","0.00"
"01:39:57","44.9","42.4","91","30.14","348","0","0","0.00","0.00"
"01:44:59","44.7","42.2","91","30.14","348","0","0","0.00","0.00"
"01:49:58","44.5","42","91","30.14","348","0","0","0.00","0.00"
"01:54:57","44.5","42.3","92","30.14","348","0","0","0.00","0.00"
"01:59:59","44.5","42.3","92","30.14","348","0","0","0.00","0.00"
"02:04:57","44.4","42.2","92","30.14","348","0","0","0.00","0.00"
"02:09:58","44.4","42.2","92","30.14","348","0","0","0.00","0.00"
"02:14:57","44.4","42.2","92","30.14","348","0","0","0.00","0.00"
"02:19:56","44.4","42.2","92","30.14","348","0","0","0.00","0.00"
"02:24:58","44.4","42.5","93","30.14","348","0","0","0.00","0.00"
"02:29:57","44.5","42.6","93","30.15","348","0","0","0.00","0.00"
"02:34:59","44.6","42.7","93","30.15","348","0","0","0.00","0.00"
"02:39:59","44.7","42.8","93","30.15","348","0","0","0.00","0.00"
"02:44:58","44.8","42.9","93","30.15","348","0","0","0.00","0.00"
"02:49:57","44.9","43.1","93.1","30.15","348","0","0","0.00","0.00"
"02:54:59","45","43.2","93.4","30.15","348","0","0","0.00","0.00"
"02:59:58","45.2","43.6","94","30.15","348","0","0","0.00","0.00"
"03:04:57","45.3","43.7","94","30.15","348","0","0","0.00","0.00"
"03:09:58","45.4","43.8","94","30.15","348","0","0","0.00","0.00"
"03:14:57","45.6","43.7","93.1","30.15","348","0","0","0.00","0.00"
"03:19:56","45.6","43.7","93","30.15","348","0","0","0.00","0.00"
"03:24:58","45.7","43.8","93","30.15","348","0","0","0.00","0.00"
"03:29:57","45.8","43.9","93","30.15","348","0","0","0.00","0.00"
"03:34:56","45.8","43.9","93","30.14","348","0","0","0.00","0.00"
"03:39:57","45.9","44","93","30.14","348","0","0","0.00","0.00"
"03:44:58","46","44.1","93","30.14","348","0","0","0.00","0.00"
"03:49:56","46","44.1","93","30.14","348","0","0","0.00","0.00"
"03:54:59","46","44.1","93","30.14","348","0","0","0.00","0.00"
"03:59:59","46","44.1","93","30.15","348","0","0","0.00","0.00"
"04:04:58","46","44.1","93","30.15","348","0","0","0.00","0.00"
"04:09:58","46","44.1","93","30.15","348","0","0","0.00","0.00"
"04:14:59","46","44.1","93","30.15","348","0","0","0.00","0.00"
"04:19:57","46","44.1","93","30.15","348","0","0","0.00","0.00"
"04:24:59","46.1","44.2","93","30.15","348","0","0","0.00","0.00"
"04:29:58","46.1","44.2","93","30.15","348","0","0","0.00","0.00"
"04:34:56","46.1","44.2","93","30.15","348","0","0","0.00","0.00"
"04:39:56","46","44","92.7","30.15","348","0","0","0.00","0.00"
"04:44:58","46","44.1","92.9","30.15","348","0","0","0.00","0.00"
"04:49:57","45.9","43.8","92.4","30.15","348","0","0","0.00","0.00"
"04:54:59","45.9","43.7","92","30.15","348","0","0","0.00","0.00"
"04:59:57","45.7","43.5","92","30.15","348","0","0","0.00","0.00"
"05:04:59","45.6","43.4","92","30.15","348","0","0","0.00","0.00"
"05:09:59","45.5","43.3","92","30.15","348","0","0","0.00","0.00"
"05:14:58","45.2","43","92","30.15","348","0","0","0.00","0.00"
"05:19:57","45","42.8","92","30.15","348","0","0","0.00","0.00"
"05:24:58","44.8","42.6","92","30.15","348","0","0","0.00","0.00"
"05:29:56","44.7","42.5","92","30.16","348","0","0","0.00","0.00"
"05:34:57","44.6","42.6","92.7","30.16","348","0","0","0.00","0.00"
"05:39:56","44.5","42.6","93","30.16","348","0","0","0.00","0.00"
"05:44:58","44.5","42.6","93","30.16","348","0","0","0.00","0.00"
"05:49:59","44.5","42.6","93","30.16","348","0","0","0.00","0.00"
"05:54:56","44.5","42.6","93","30.16","348","0","0","0.00","0.00"
"05:59:59","44.5","42.6","93","30.17","348","0","0","0.00","0.00"
"06:04:56","44.4","42.5","93","30.17","348","0","0","0.00","0.00"
"06:09:57","44.4","42.6","93.4","30.17","348","0","0","0.00","0.00"
"06:14:55","44.4","42.8","94","30.17","348","0","0","0.00","0.00"
"06:19:57","44.4","42.8","94","30.17","348","0","0","0.00","0.00"
"06:24:59","44.4","42.8","94","30.17","348","0","0","0.00","0.00"
"06:29:56","44.3","42.7","94","30.17","348","0","0","0.00","0.00"
"06:34:57","44.3","42.7","94","30.17","348","0","0","0.00","0.00"
"06:39:57","44.3","42.7","94","30.17","348","0","0","0.00","0.00"
"06:44:58","44.2","42.6","94","30.17","348","0","0","0.00","0.00"
"06:49:56","44.2","42.6","94","30.17","348","0","0","0.00","0.00"
"06:54:58","44.2","42.6","94","30.17","348","0","0","0.00","0.00"
"06:59:56","44.2","42.6","94","30.18","348","0","0","0.00","0.00"
"07:04:57","44.3","42.7","94","30.18","348","0","0","0.00","0.00"
"07:09:58","44.3","42.7","94","30.18","348","0","0","0.00","0.00"
"07:14:56","44.3","42.7","94","30.18","348","0","0","0.00","0.00"
"07:19:58","44.4","43","94.7","30.18","348","0","0","0.00","0.00"
"07:24:56","44.5","43.2","95","30.18","348","0","0","0.00","0.00"
"07:29:57","44.5","43.2","95","30.19","348","0","0","0.00","0.00"
"07:34:59","44.5","43.2","95","30.19","348","0","0","0.00","0.00"
"07:39:58","44.6","43.3","95","30.19","348","0","0","0.00","0.00"
"07:44:59","44.7","43.4","95","30.19","348","0","0","0.00","0.00"
"07:49:57","45","43.7","95","30.19","348","0","0","0.00","0.00"
"07:54:58","45.2","43.9","95","30.19","348","0","0","0.00","0.00"
"07:59:57","45.5","44.2","95","30.19","348","0","0","0.00","0.00"
"08:04:58","45.7","44.4","95","30.19","348","0","0","0.00","0.00"
"08:09:59","45.9","44.5","95","30.19","348","0","0","0.00","0.00"
"08:14:59","46.2","44.8","95","30.19","348","0","0","0.00","0.00"
"08:19:56","46.5","45.1","95","30.19","348","0","0","0.00","0.00"
"08:24:56","46.9","45.5","95","30.19","348","0","0","0.00","0.00"
"08:29:56","47.3","45.9","95","30.20","348","0","0","0.00","0.00"
"08:34:56","47.7","46.1","94.2","30.20","348","0","0","0.00","0.00"
"08:39:56","48.1","46.2","93.2","30.20","348","0","0","0.00","0.00"
"08:44:57","48.5","46.6","92.9","30.20","348","0","0","0.00","0.00"
"08:49:58","49","46.3","90.5","30.20","348","0","0","0.00","0.00"
"08:54:59","49.5","46.5","89.5","30.20","348","0","0","0.00","0.00"
"08:59:56","50.1","46.7","88.1","30.20","348","0","0","0.00","0.00"
"09:04:58","50.7","46.9","86.8","30.20","348","0.3","2.4","0.00","0.00"
"09:09:58","51.3","47.1","85.4","30.20","348","0.9","3.6","0.00","0.00"
"09:14:56","51.9","47","83.2","30.20","348","0.8","3.6","0.00","0.00"
"09:19:57","52.5","47","81.6","30.20","347","1.4","3.6","0.00","0.00"
"09:24:57","52.9","46.9","80","30.20","347","0.5","2.4","0.00","0.00"
"09:29:58","53.3","46.8","78.4","30.20","347","2","4.8","0.00","0.00"
"09:34:59","53.7","46.7","77.1","30.20","347","2.2","4.8","0.00","0.00"
"09:39:58","54","46.5","75.6","30.20","346","2.4","4.8","0.00","0.00"
"09:44:58","54.2","46.3","74.9","30.20","347","2.1","6","0.00","0.00"
"09:49:59","54.3","46.1","73.6","30.20","346","2.6","5.8","0.00","0.00"
"09:54:59","54.5","46.1","73.2","30.20","313","2.7","6","0.00","0.00"
"09:59:56","54.8","46.1","72.5","30.21","342","2.3","4.8","0.00","0.00"
"10:04:57","55.2","45.9","70.9","30.21","309","2.7","8.4","0.00","0.00"
"10:09:57","55.9","45.7","68.6","30.21","324","3.3","7.2","0.00","0.00"
"10:14:58","56.2","45.6","67.5","30.21","327","2.7","6","0.00","0.00"
"10:19:59","56.6","46","67.4","30.21","341","3","7.2","0.00","0.00"
"10:24:59","56.8","45.8","66.6","30.21","341","2.5","6","0.00","0.00"
"10:29:56","56.8","45.7","66.2","30.21","286","2.8","6","0.00","0.00"
"10:34:56","57.2","45","63.7","30.21","315","2.5","6","0.00","0.00"
"10:39:58","57.5","45.6","64.4","30.21","357","1.6","6","0.00","0.00"
"10:44:58","58.3","45.7","62.9","30.21","311","2.3","6","0.00","0.00"
"10:49:59","59.1","46.1","62.2","30.21","238","2.4","7.2","0.00","0.00"
"10:54:56","59","44.4","58.3","30.21","338","3.6","8.4","0.00","0.00"
"10:59:57","59","44.9","59.3","30.21","338","3.1","8.4","0.00","0.00"
"11:04:57","59.4","44.8","58.3","30.21","317","2.9","8.4","0.00","0.00"
"11:09:57","59.3","43.9","56.7","30.21","355","3.2","8.4","0.00","0.00"
"11:14:59","59","43","55.5","30.21","331","2.6","6","0.00","0.00"
"11:19:56","58.9","43","55.7","30.21","335","2.2","6","0.00","0.00"
"11:24:56","59.4","43.1","55","30.21","261","2.1","6","0.00","0.00"
"11:29:57","59.8","43.4","54.7","30.21","353","1.7","5.8","0.00","0.00"
"11:34:58","59.8","43.7","55.3","30.21","351","1.6","4.8","0.00","0.00"
"11:39:57","60.3","43.9","54.8","30.21","340","1.2","4.8","0.00","0.00"
"11:44:58","60.9","44.1","54","30.21","332","2.1","6","0.00","0.00"
"11:49:59","60.7","44.1","54.2","30.21","319","1.7","5.8","0.00","0.00"
"11:54:56","61.6","44.5","53.5","30.21","308","0.4","3.5","0.00","0.00"
"11:59:57","61.7","44.8","53.8","30.21","270","2.3","8.4","0.00","0.00"
"12:04:59","61.7","44.8","53.9","30.20","231","2.4","6","0.00","0.00"
"12:09:58","61.6","44.6","53.6","30.20","269","4.7","10.8","0.00","0.00"
"12:14:57","61.2","44","53.1","30.20","319","2.2","10.4","0.00","0.00"
"12:18:43","61.6","44.2","52.8","30.20","205","3","6","0.00","0.00"
"12:34:59","61.1","44.9","55.3","30.20","243","6.1","9.6","0.00","0.00"
"12:39:58","60.9","44.6","55","30.20","333","3","9.2","0.00","0.00"
"12:44:56","61.6","45.2","54.7","30.20","334","2.2","7.2","0.00","0.00"
"12:49:59","61.7","44.4","53","30.20","327","3.7","10.8","0.00","0.00"
"12:54:48","61.2","44.3","53.8","30.20","318","3.4","10.4","0.00","0.00"
"12:59:58","61.4","43.9","52.6","30.20","225","3.6","8.1","0.00","0.00"
"13:04:59","61.5","44.7","54","30.19","190","2.3","7.2","0.00","0.00"
"13:09:59","61.5","44.4","53.3","30.19","293","3.7","8.4","0.00","0.00"
"13:11:11","61.5","46.4","57.7","30.19","215","1.7","5.8","0.00","0.00"
"13:29:59","60.6","44.3","55","30.18","349","2.6","6.9","0.00","0.00"
"13:34:57","60.5","44.8","56.2","30.18","338","2.2","6","0.00","0.00"
"13:39:56","60.4","44.9","56.7","30.18","330","2.7","6","0.00","0.00"
"13:44:57","60.3","44.2","55.3","30.18","325","2.3","6","0.00","0.00"
"13:49:59","60.3","45.1","57.1","30.17","178","1.9","4.6","0.00","0.00"
"13:54:56","60.4","45.2","57.1","30.17","140","1.3","3.6","0.00","0.00"
"13:59:58","60.5","45.1","56.8","30.17","168","2.1","4.8","0.00","0.00"
"14:04:59","60.5","44.1","54.8","30.17","207","1.5","4.8","0.00","0.00"
"14:09:59","60.5","44.4","55.4","30.17","222","2.9","6","0.00","0.00"
"14:14:57","60.4","43.9","54.5","30.17","225","3.5","6","0.00","0.00"
"14:19:59","60.4","44.3","55.3","30.16","219","3.1","4.8","0.00","0.00"
"14:24:57","60.3","44.5","55.9","30.16","202","2.8","6","0.00","0.00"
"14:29:58","60.4","44.6","55.9","30.16","246","2.5","4.8","0.00","0.00"
"14:34:56","60.3","43.7","54.3","30.16","313","2.7","6","0.00","0.00"
"14:39:56","60.4","44.8","56.3","30.16","350","1.7","5.8","0.00","0.00"
"14:44:56","60.7","45.6","57.5","30.16","348","2.1","12","0.00","0.00"
"14:49:57","60.5","45.3","57.2","30.16","342","3.6","8.4","0.00","0.00"
"14:54:57","60.3","45.6","58.3","30.16","345","2.5","7.2","0.00","0.00"
"14:59:59","60.3","45.8","58.6","30.16","346","2.4","7.2","0.00","0.00"
"15:04:56","60.4","46","58.9","30.16","345","1.9","6.9","0.00","0.00"
"15:09:56","60.3","45.6","58.3","30.16","338","3.4","8.4","0.00","0.00"
"15:14:59","60","45.4","58.5","30.17","344","2.8","8.4","0.00","0.00"
"15:19:57","59.9","45.5","58.9","30.17","330","2.9","7.2","0.00","0.00"
"15:24:58","60","45.6","58.9","30.17","354","2.2","6","0.00","0.00"
"15:29:56","59.9","45.3","58.3","30.17","347","3.1","7.2","0.00","0.00"
"15:34:57","60","45.8","59.5","30.16","353","1.6","6","0.00","0.00"
"15:39:56","60","45.8","59.5","30.16","347","2.3","6","0.00","0.00"
"15:44:58","59.8","45.4","58.9","30.16","338","2.2","4.8","0.00","0.00"
"15:49:56","59.8","45.6","59.4","30.16","353","1.4","4.8","0.00","0.00"
"15:54:57","59.9","45.6","59.2","30.16","355","1","3.6","0.00","0.00"
"15:59:55","59.9","45.5","58.9","30.16","355","0.3","3.5","0.00","0.00"
"16:04:57","59.9","45.9","59.7","30.16","352","0.1","3.6","0.00","0.00"
"16:09:57","59.9","45.6","59","30.16","350","0.8","3.5","0.00","0.00"
"16:14:55","59.9","45.6","59","30.16","350","0.2","2.4","0.00","0.00"
"16:19:57","59.9","45.7","59.3","30.16","347","1.6","4.8","0.00","0.00"
"16:24:59","59.9","46.1","60.4","30.16","344","0.1","2.3","0.00","0.00"
"16:29:57","59.8","46","60.3","30.16","344","0","1.2","0.00","0.00"
"16:34:59","59.6","45.5","59.5","30.16","344","0.2","1.2","0.00","0.00"
"16:39:58","59.6","46.1","60.9","30.16","344","0.8","3.6","0.00","0.00"
"16:44:56","59.6","45.6","59.8","30.16","344","1.1","3.6","0.00","0.00"
"16:49:58","59.5","45.8","60.6","30.16","344","0.9","2.4","0.00","0.00"
"16:54:59","59.4","45.3","59.5","30.16","344","1.2","2.4","0.00","0.00"
"16:59:57","59.3","44.8","58.5","30.16","344","0.7","2.4","0.00","0.00"
"17:04:58","59.3","45.6","60.5","30.16","344","0","0","0.00","0.00"
"17:09:59","59.2","45.7","61","30.16","344","0","0","0.00","0.00"
"17:14:58","59.1","45.7","61","30.16","344","0","0","0.00","0.00"
"17:19:56","59.1","46","61.9","30.15","344","0","0","0.00","0.00"
"17:24:58","59","45.6","61","30.15","344","0","0","0.00","0.00"
"17:29:56","58.9","45.7","61.3","30.15","344","0","0","0.00","0.00"
"17:34:58","58.9","45.7","61.5","30.15","344","0","0","0.00","0.00"
"17:39:57","58.9","46.3","63.2","30.15","344","0","0","0.00","0.00"
"17:44:59","58.7","46.5","63.8","30.15","344","0","0","0.00","0.00"
"17:49:57","58.6","46.5","64","30.15","344","0","0","0.00","0.00"
"17:54:59","58.5","46.1","63.4","30.15","344","0","0","0.00","0.00"
"17:59:57","58.4","45.7","62.6","30.15","344","0","0","0.00","0.00"
"18:04:59","58.3","46.2","64.1","30.15","344","0","0","0.00","0.00"
"18:09:59","58.2","46.6","65.3","30.15","344","0","0","0.00","0.00"
"18:14:59","58","46.7","66.1","30.16","344","0","0","0.00","0.00"
"18:19:57","57.8","46.8","66.8","30.16","344","0","0","0.00","0.00"
"18:24:56","57.6","47.6","69.4","30.16","344","0","0","0.00","0.00"
"18:29:58","57.2","47.6","70.2","30.16","344","0","0","0.00","0.00"
"18:34:57","56.9","47.3","70.2","30.16","344","0","0","0.00","0.00"
"18:39:57","56.7","47.2","70.6","30.16","344","0","0","0.00","0.00"
"18:44:59","56.4","47.3","71.5","30.16","344","0","0","0.00","0.00"
"18:49:58","56.3","47.4","72.2","30.16","344","0","0","0.00","0.00"
"18:54:56","56.1","47.1","71.7","30.16","344","0","0","0.00","0.00"
"18:59:59","56","47.5","73","30.16","344","0","0","0.00","0.00"
"19:04:56","55.8","47.3","73.2","30.16","344","0","0","0.00","0.00"
"19:09:57","55.6","47.4","74","30.16","344","0","0","0.00","0.00"
"19:14:57","55.5","47.7","75.1","30.16","344","0","0","0.00","0.00"
"19:19:59","55.3","47.9","76","30.16","344","0","0","0.00","0.00"
"19:24:58","55.1","47.7","76","30.16","344","0","0","0.00","0.00"
"19:29:56","55","47.5","75.7","30.17","344","0","0","0.00","0.00"
"19:34:58","54.9","47.4","75.8","30.17","344","0","0","0.00","0.00"
"19:39:58","54.8","47.7","76.9","30.17","344","0","0","0.00","0.00"
"19:44:56","54.8","48.1","78","30.17","344","0","0","0.00","0.00"
"19:49:56","54.8","48.1","78.2","30.17","344","0","0","0.00","0.00"
"19:54:58","54.7","48","78","30.17","344","0","0","0.00","0.00"
"19:59:57","54.7","48","78","30.17","344","0","0","0.00","0.00"
"20:04:59","54.6","47.9","78","30.17","344","0","0","0.00","0.00"
"20:09:59","54.5","47.8","78","30.17","344","0","0","0.00","0.00"
"20:14:59","54.3","47.8","78.6","30.17","344","0","0","0.00","0.00"
"20:19:57","54.2","47.9","79.3","30.17","344","0","0","0.00","0.00"
"20:24:59","54.1","48.1","80","30.17","344","0","0","0.00","0.00"
"20:29:58","54","48.2","80.9","30.17","344","0","0","0.00","0.00"
"20:34:56","53.8","48.4","81.8","30.17","344","0","0","0.00","0.00"
"20:39:56","53.6","48.2","82","30.17","344","0","0","0.00","0.00"
"20:44:57","53.2","47.8","82","30.17","344","0","0","0.00","0.00"
"20:49:57","52.8","47.6","82.4","30.17","344","0","0","0.00","0.00"
"20:54:57","52.4","47.6","83.6","30.17","344","0","0","0.00","0.00"
"20:59:59","52","47.4","84.3","30.17","344","0","0","0.00","0.00"
"21:04:57","51.6","47.2","85","30.17","344","0","0","0.00","0.00"
"21:09:58","51.3","47.2","85.6","30.17","344","0","0","0.00","0.00"
"21:14:57","50.9","47","86.1","30.17","344","0","0","0.00","0.00"
"21:19:56","50.6","46.9","87","30.17","344","0","0","0.00","0.00"
"21:24:58","50.3","46.7","87.2","30.17","344","0","0","0.00","0.00"
"21:29:56","50.1","46.7","88","30.17","344","0","0","0.00","0.00"
"21:34:59","49.9","46.5","88","30.17","344","0","0","0.00","0.00"
"21:39:59","49.6","46.2","88","30.17","344","0","0","0.00","0.00"
"21:44:57","49.3","45.9","88","30.17","344","0","0","0.00","0.00"
"21:49:56","49","45.9","89","30.17","344","0","0","0.00","0.00"
"21:54:59","48.8","45.7","89","30.17","344","0","0","0.00","0.00"
"21:59:57","48.5","45.4","89","30.18","344","0","0","0.00","0.00"
"22:04:59","48.3","45.2","89","30.18","344","0","0","0.00","0.00"
"22:09:56","48","44.9","89","30.18","344","0","0","0.00","0.00"
"22:14:59","47.7","44.7","89.3","30.18","344","0","0","0.00","0.00"
"22:19:58","47.4","44.6","90","30.18","344","0","0","0.00","0.00"
"22:24:56","47.3","44.6","90.4","30.18","344","0","0","0.00","0.00"
"22:29:58","47.2","44.7","91","30.18","344","0","0","0.00","0.00"
"22:34:56","47","44.5","91","30.18","344","0","0","0.00","0.00"
"22:39:57","46.9","44.4","91","30.18","344","0","0","0.00","0.00"
"22:44:59","46.7","44.2","91","30.18","344","0","0","0.00","0.00"
"22:49:58","46.4","43.9","91","30.18","344","0","0","0.00","0.00"
"22:54:56","46.2","43.7","91","30.18","344","0","0","0.00","0.00"
"22:59:59","46","43.5","91","30.18","344","0","0","0.00","0.00"
"23:04:57","45.8","43.3","91","30.18","344","0","0","0.00","0.00"
"23:09:57","45.6","43.3","91.7","30.18","344","0","0","0.00","0.00"
"23:14:56","45.5","43.3","92","30.18","344","0","0","0.00","0.00"
"23:19:59","45.4","43.2","92","30.18","344","0","0","0.00","0.00"
"23:24:57","45.2","43","92","30.18","344","0","0","0.00","0.00"
"23:29:59","45.1","42.9","92","30.18","344","0","0","0.00","0.00"
"23:34:57","44.9","42.7","92","30.18","344","0","0","0.00","0.00"
"23:39:57","44.7","42.5","92","30.18","344","0","0","0.00","0.00"
"23:44:59","44.6","42.4","92","30.18","344","0","0","0.00","0.00"
"23:49:58","44.5","42.3","92","30.18","344","0","0","0.00","0.00"
"23:54:59","44.3","42.1","92","30.18","344","0","0","0.00","0.00"
